sat.trackr.live / text

‹ back to catalog

STARLINK-35087

NORAD 65541 · 2025-200X

PAYLOAD ACTIVE UNKNOWN

§ Identity

Operator
Country
US
Launch date
2025-09-06
Launch site
AFWTR
Launch vehicle
Mass (kg)
RCS (m²)

Purposes: comms

External: N2YO · Heavens-Above · Gunter

§ Orbital elements

Epoch: 2026-05-25T03:09:46.287936Z

Period
95.64 min
Inclination
97.4504°
Eccentricity
0.0001648
Mean motion
15.05603572 rev/d
Perigee alt
548.5 km
Apogee alt
550.8 km
Semi-major
6,927.8 km
B*
-1.0276e-3
RAAN
214.7869°
Arg perigee
126.3840°
Mean anomaly
233.7540°
Rev number
4,063

§ Raw data

STARLINK-350871 65541U 25200X   26145.13178574 -.00014836  00000+0 -10276-2 0  99952 65541  97.4504 214.7869 0001648 126.3840 233.7540 15.05603572 40633

JSON: /api/v1/satellites/65541 · /tle

For live sub-satellite position, see the globe view (requires WebGL).

§ Visibility from observer

Set your observer location to see the next 7 days of passes ≥ 10°. The values pass through the URL so the page stays shareable.

No JS? Fill the form by hand. The geolocation button needs JavaScript.